Regional Weather Roundup
Issued by NWS Charleston, SC

Current Version | Previous Version | Text Only | Print | Product List | Glossary Off
Versions: 1 2 3 4 5 6 7 8 9 10 11 12 13 14 15 16 17 18 19 20 21 22 23 24 25 26 27 28 29 30 31 32 33 34 35 36 37 38 39 40 41 42 43 44 45 46 47 48 49 50

000
ASUS42 KCHS 230612
RWRCHS

REGIONAL WEATHER ROUNDUP
NATIONAL WEATHER SERVICE CHARLESTON SC
200 AM EDT MON OCT 23 2017

NOTE: "FAIR" INDICATES FEW OR NO CLOUDS BELOW 12,000 FEET WITH NO
SIGNIFICANT WEATHER AND/OR OBSTRUCTIONS TO VISIBILITY.

NOT ALL STATIONS ARE QUALITY CONTROLLED. USE DATA WITH CAUTION...
ESPECIALLY DEWPOINT OBSERVATIONS.

SCZ027-030-031-034>040-042>050-230700-
...SOUTHEAST SOUTH CAROLINA...

CITY           SKY/WX    TMP DP  RH WIND       PRES   REMARKS
N CHARLESTON   CLOUDY    73  71  93 SE7       30.14F
6HR MIN TEMP:  71; 6HR MAX TEMP:  73; 6HR PCP:  0.25;

WATERFRONT PRK NOT AVBL
JOHNS ISLAND   CLOUDY    75  72  88 SE7       30.15S
PINOPOLIS        N/A     70  70 100 VRB3      30.07F
MONCKS CORNER  LGT RAIN  70  68  94 SE3       30.16F
SUMMERVILLE    MOCLDY    70  70 100 E3        30.16F
BEAUFORT MCAS  CLOUDY    72  72 100 MISG      30.14S
6HR MIN TEMP:  72; 6HR MAX TEMP:  74; 6HR PCP:  0.11;

BEAUFORT ARPT  CLOUDY    70  68  94 SE3       30.13S
HILTON HEAD IS PTCLDY    73  70  88 SE7       30.14S
WALTERBORO     RAIN      70  70 100 E3        30.15F
ALLENDALE        N/A     72  70  94 E5          N/A

...SOUTHERN MIDLANDS AND PEE DEE...

CITY           SKY/WX    TMP DP  RH WIND       PRES   REMARKS
GEORGETOWN     FAIR      70  70 100 E8        30.18F
KINGSTREE      FAIR      68  66  94 E3        30.17F
ORANGEBURG     LGT RAIN  69  68  96 E6        30.15F
6HR MIN TEMP:  69; 6HR MAX TEMP:  70; 6HR PCP:  0.17;

BARNWELL         N/A     72  72 100 E7        30.13F
AIKEN          RAIN      68  68 100 E7        30.17F
MANNING        FAIR      68  66  94 MISG      30.16F
COLUMBIA       LGT RAIN  69  69 100 E7        30.15F FOG
6HR MIN TEMP:  69; 6HR MAX TEMP:  71; 6HR PCP:  0.19;

SUMTER         PTCLDY    66  66 100 NE6       30.14F
6HR MIN TEMP:  67; 6HR MAX TEMP:  74; 6HR PCP:  0.02;

FLORENCE       PTCLDY    67  63  87 E7        30.19F
6HR MIN TEMP:  67; 6HR MAX TEMP:  73; 6HR PCP: TRACE;

MYRTLE BEACH   CLOUDY    72  69  90 S17       30.20F
N MYRTLE BEACH CLOUDY    75  70  84 SE7       30.19F
6HR MIN TEMP:  69; 6HR MAX TEMP:  75; 6HR PCP: TRACE;


$$

GAZ063-065-086>088-099>101-113>116-118-119-134>141-150-230700-
...SOUTHEAST GEORGIA...

CITY           SKY/WX    TMP DP  RH WIND       PRES   REMARKS
SAVANNAH ARPT  CLOUDY    72  71  97 SE6       30.12F
6HR MIN TEMP:  72; 6HR MAX TEMP:  73; 6HR PCP:  0.11;

HUNTER AAF     CLOUDY    73  70  89 SE6       30.09F
6HR MIN TEMP:  72; 6HR MAX TEMP:  74; 6HR PCP:  0.23;

FORT STEWART   CLOUDY    72  70  94 E5        30.09F
6HR MIN TEMP:  71; 6HR MAX TEMP:  74; 6HR PCP:  0.01;

STATESBORO     CLOUDY    72  72 100 SE5       30.11F
SYLVANIA       CLOUDY    72  72 100 SE3       30.13F
CLAXTON        MOCLDY    73  72  97 NE5       30.10F

...CSRA...CENTRAL AND FAR SOUTHEAST GEORGIA...

CITY           SKY/WX    TMP DP  RH WIND       PRES   REMARKS
THOMSON        LGT RAIN  69  68  98 S6        30.16F FOG
AUGUSTA-BUSH   CLOUDY    72  69  90 CALM      30.11F
6HR MIN TEMP:  72; 6HR MAX TEMP:  73; 6HR PCP:  0.02;

AUGUSTA-DANIEL CLOUDY    71  69  93 E7        30.12F
SWAINSBORO     CLOUDY    70  70 100 E5        30.10F
VIDALIA        CLOUDY    72  72 100 E6        30.09F
EASTMAN        CLOUDY    74  74 100 SE6       30.10F
HAZLEHURST       N/A     74  70  87 SE5       30.07F
ALMA           CLOUDY    74  71  91 E5        30.07F
6HR MIN TEMP:  74; 6HR MAX TEMP:  76;

WAYCROSS       MOCLDY    75  72  91 SE6       30.07F
JESUP          MOCLDY    73  70  88 CALM      30.10
BAXLEY         CLOUDY    70  70 100 SE5       30.08F
BRUNSWICK      CLOUDY    77  72  83 SE5       30.10F
SAINT SIMONS   PTCLDY    77  73  87 SE10      30.10F
6HR MIN TEMP:  75; 6HR MAX TEMP:  77;


$$

SCZ027-028-034-036>038-045-046-048>050-GAZ119-141-230700-
...LAKE AND SUPPLEMENTAL COASTAL OBSERVATIONS...

STATION/POSITION TIME  TEMP    WIND        PRES    WAVE   SWELL
                       AIR SEA DIR/SP/G            HT/PER HT/PER/DIR
                 (UTC) (F)     (DEG/KT/KT) (MB)    (FT/S) (FT/S/D)
WINYAH BAY       0445   72     110/ 11     1023.0
LAKE MURRAY      0520   68      70/  5/  9 1020.7
ACE BASIN NERRS  0445   72        CALM     1021.0
FORT PULASKI     0542   73 74  130/  8/ 10 1020.5F
SAPELO ISLAND    NOT AVBL

$$

ANZ835-935-AMZ111-154-330-350-352-354-370-450-454-472-230700-
...C-MAN AND BUOY OBSERVATIONS...

STATION/POSITION TIME  TEMP    WIND        PRES    WAVE   SWELL
                       AIR SEA DIR/SP/G            HT/PER HT/PER/DIR
                 (UTC) (F)     (DEG/KT/KT) (MB)    (FT/S) (FT/S/D)
BUOY 41004       0550   80 79  140/ 19/ 25 1020.9F   6/ 6   2/140/14
BUOY 41008       0550   77 77  120/ 14/ 17 1019.2F   4/ 7   3/100/ 7
FOLLY BEACH CMAN 0500   74     140/ 18/ 19 1021.7F
CAPERS NEARSHORE 0508   71 73  180/ 16/ 23 1020.9F
FRIPP NEARSHORE  0508   74     160/ 10/ 16   N/A


STATION/POSITION TIME  TEMP    WIND        PRES    WAVE   SWELL
                       AIR SEA DIR/SP/G            HT/PER HT/PER/DIR
                 (UTC) (F)     (DEG/KT/KT) (MB)    (FT/S) (FT/S/D)
5E ST. MARYS GA  0530      76                N/A     4/ 8
FRYING PAN BUOY  0550   77 77  120/ 17/ 19 1022.4F   5/ 6   2/150/12
BUOY 41025       0550   77 81  130/ 14/ 17 1024.3F   3/ 8   2/100/ 8
CAPE LOOKOUT NC  0500   75     130/ 11/ 13 1024.4F
BUOY 41002       0550   76 80  110/ 12/ 14 1023.8S   4/ 9   3/100/ 9
BUOY 41010       NOT AVBL
ST AUGUSTINE FL  0600   79 78  150/ 13/ 15 1018.9F


$$



USA.gov is the U.S. government's official web portal to all federal, state and local government web resources and services.